INTELSAT 33E DEB, 62004

Orbit data source: Space-Track

INTELSAT 33E DEB, 62004 is space debris in GEO originally from a launch on Wed, 24 Aug 2016 UTC launched from the French Guiana (FRGUI). Debris objects in space refer to the collection of defunct objects orbiting the Earth. Examples of debris include non-operational satellites, rocket bodies, and fragments generated from explosions, collisions, or faulty payload assembly.

Not visible in the next 10 days
Identifier
62004, 2016-053W
Orbit
GEO
Country
Flag of USUS / ITSO
Related business
Manufacturer
Boeing/ES
Mission
Spacecraft
Bus & Motor
Unknown
Mass
Unknown
Launch date (UTC)
2016-08-24 (10 years ago)
Launch vehicle
Unknown
Launch site
French Guiana (FRGUI)
Object type
Payload
Rocket body
Debris
Shape & HBR
Unknown shape, 1.1 m
Radar Cross Section
RCS unknown

Expand to show TLE details & history
Last TLE update: 1 day ago

TLE from 1 day ago
0 INTELSAT 33E DEB
1 62004U 16053W   26120.37441753 -.00000196  00000-0  00000-0 0  9999
2 62004   2.4189 116.8417 0212719 273.4277  84.5216  1.02633302  5720
Epoch: 2026-04-30T08:59Z
TLE epoch observation values (Epoch: 2026-04-30T08:59:09.674Z)
Latitude
-0°
Longitude
124.11969°
Altitude
35,069.748 km
Speed
3.104 km/s
True Right ascension
07h 48m 55s
True Declination
0° 00' 00"
Sunlit
Object was in daylight at epoch
Visualization orbit readout
Latitude
Unknown
Longitude
Unknown
Altitude
Unknown
Speed
Unknown
Apparent Right ascension
Unknown
Apparent Declination
Unknown
Sunlit
N/A
Visualization observer readout
Local Sidereal Time
23:04:29
Azimuth
Unknown
Elevation
Unknown
Doppler factor
Unknown
Orbital elements
Apogee altitude
36,021.522 km
Perigee altitude
34,255.251 km
Semi-major axis
41,516.524 km
Eccentricity
0.02127
Inclination
2.4189°
RAAN
116.8417°
Arg. of periapsis
273.4277°
True anomaly
86.95349°
Mean anomaly
84.5216°
Eccentric anomaly
85.73702°
Mean motion
0.25657 °/min
Orbital period
1,403.11 mins
BSTAR
0
Loading maneuver chart data...
Computing Atmospheric mass density...
Loading historical data...
Loading historical data...
Loading historical data...
Loading historical data...
Loading historical data...
Loading historical data...
Loading historical data...

Documentation

Showing up to 5 results
|